This demonstration page uses our WeatherBlox Daily Observations layout. Learn more.

Left ArrowRight Arrow

Hourly Observations for May 13, 2022

Temp ( °F °C ) Dew Point ( °F °C ) Humidity (%) Winds ( mph kmh ) Pressure ( in mb ) Visibility ( mi km ) Precip ( " mm )
12:53 am 00:53 Clear with Thunderstorms 76 24.4 65 18.3 69 69 S 10 17 29.78 1008 10 16 0.00 0.00
1:49 am 01:49 Mostly Cloudy 73 23 64 18 74 74 SSE 12 19 29.75 1007 10 16 0.00 0.00
1:53 am 01:53 Mostly Cloudy 74 23.3 65 18.3 74 74 SSE 12 19 29.75 1008 10 16 0.00 0.00
2:53 am 02:53 Cloudy 74 23.3 65 18.3 74 74 W 6 9 29.79 1009 10 16 0.00 0.00
3:11 am 03:11 Cloudy with Thunderstorms 74 23.3 65 18.3 74 74 N 3 6 29.79 1009 10 16 0.00 0.00
3:53 am 03:53 Cloudy with Thunderstorms 73 22.8 65 18.3 76 76 WNW 9 15 29.79 1009 10 16 0.00 0.00
4:43 am 04:43 Mostly Cloudy 79 26.1 54 12.2 42 42 W 22 35 29.72 1007 10 16 0.00 0.00
4:53 am 04:53 Mostly Cloudy 76 24.4 59 15 56 56 W 13 20 29.73 1007 10 16 0.00 0.00
5:53 am 05:53 Clear 74 23.3 65 18.3 74 74 NNE 28 44 29.73 1007 10 16 0.00 0.00
6:42 am 06:42 Mostly Cloudy 69 20.6 60 15.6 73 73 N 12 19 29.81 1009 10 16 0.00 0.00
6:53 am 06:53 Mostly Cloudy 70 21.1 63 17.2 79 79 N 17 28 29.80 1009 10 16 0.00 0.00
7:53 am 07:53 Mostly Cloudy 67 19.4 63 17.2 87 87 NE 14 22 29.88 1012 10 16 0.00 0.00
8:24 am 08:24 Partly Cloudy 67 19.4 62 16.7 84 84 NE 16 26 29.90 1013 10 16 0.00 0.00
8:53 am 08:53 Partly Cloudy 68 20 62 16.7 81 81 NNE 15 24 29.90 1012 10 16 0.00 0.00
9:53 am 09:53 Partly Cloudy 72 22.2 65 18.3 79 79 NE 17 28 29.90 1013 10 16 0.00 0.00
10:53 am 10:53 Partly Cloudy 74 23.3 66 18.9 76 76 NE 14 22 29.90 1013 10 16 0.00 0.00
11:53 am 11:53 Partly Cloudy 77 25 66 18.9 69 69 NE 16 26 29.89 1012 10 16 0.00 0.00
12:53 pm 12:53 Partly Cloudy 79 26.1 66 18.9 65 65 NE 10 17 29.89 1012 10 16 0.00 0.00
1:53 pm 13:53 Mostly Cloudy 80 26.7 66 18.9 62 62 E 10 17 29.87 1012 10 16 0.00 0.00
2:53 pm 14:53 Mostly Cloudy 81 27.2 65 18.3 58 58 ENE 9 15 29.86 1011 10 16 0.00 0.00
3:53 pm 15:53 Mostly Cloudy 81 27.2 65 18.3 58 58 ESE 10 17 29.84 1011 10 16 0.00 0.00
4:53 pm 16:53 Mostly Cloudy 83 28.3 65 18.3 55 55 E 10 17 29.83 1010 10 16 0.00 0.00
5:53 pm 17:53 Partly Cloudy 82 27.8 64 17.8 55 55 E 10 17 29.82 1010 10 16 0.00 0.00
6:53 pm 18:53 Partly Cloudy 81 27.2 63 17.2 54 54 ESE 12 19 29.81 1010 10 16 0.00 0.00
7:53 pm 19:53 Mostly Cloudy 80 26.7 63 17.2 56 56 ENE 8 13 29.83 1010 10 16 0.00 0.00
8:53 pm 20:53 Mostly Cloudy 78 25.6 63 17.2 60 60 ENE 13 20 29.84 1011 10 16 0.00 0.00
9:35 pm 21:35 Cloudy with Thunderstorms 77 25 63 17.2 62 62 NE 12 19 29.85 1011 10 16 0.00 0.00
9:53 pm 21:53 Cloudy with Thunderstorms 77 25 63 17.2 62 62 ENE 9 15 29.87 1012 10 16 0.00 0.00
10:30 pm 22:30 Cloudy with Light Rain 76 24.4 64 17.8 67 67 ENE 8 13 29.87 1012 10 16 0.00 0.00
10:53 pm 22:53 Cloudy 75 23.9 64 17.8 69 69 E 7 11 29.89 1012 10 16 0.00 0.00
11:53 pm 23:53 Mostly Cloudy 72 22.2 63 17.2 73 73 ENE 6 9 29.90 1013 10 16 0.00 0.00

Powered by AerisWeather